Location: Cluny
(50.9333°N, 112.8167°W)
Time: 07:33:55
(UTC-06:00)

Hamsat - Visible Passes

Search period start: 29 September 2016 00:00
Search period end: 09 October 2016 00:00
Orbit: 587 x 618 km, 97.6° (Epoch: 29 September)

Date Brightness Start Highest point End Pass type
(mag) Time Alt. Az. Time Alt. Az. Time Alt. Az.
29 Sep ? 05:51:40 10° NNE 05:55:57 54° E 06:00:10 10° S visible
30 Sep ? 06:03:36 10° NNE 06:07:57 71° ESE 06:12:14 10° S visible
01 Oct ? 04:41:48 10° ENE 04:43:29 12° E 04:45:09 10° ESE visible
01 Oct ? 06:15:34 10° NNE 06:19:56 88° W 06:24:14 10° SSW visible
02 Oct ? 04:53:01 10° NE 04:55:37 16° E 04:58:12 10° SE visible
02 Oct ? 06:27:34 10° N 06:31:54 69° WNW 06:36:09 10° SSW visible
03 Oct ? 05:04:32 10° NE 05:07:43 20° E 05:10:53 10° SE visible
03 Oct ? 06:39:36 10° N 06:43:50 52° WNW 06:48:00 10° SSW visible
04 Oct ? 05:16:12 10° NE 05:19:48 25° E 05:23:22 10° SSE visible
04 Oct ? 06:51:41 10° N 06:55:45 41° WNW 06:59:46 10° SW visible
05 Oct ? 05:27:57 10° NNE 05:31:52 32° E 05:35:43 10° SSE visible
05 Oct ? 07:03:47 10° N 07:07:39 32° WNW 07:11:27 10° SW visible
06 Oct ? 05:39:47 10° NNE 05:43:53 42° E 05:47:56 10° S visible
07 Oct ? 05:51:39 10° NNE 05:55:55 55° E 06:00:06 10° S visible
08 Oct ? 06:03:34 10° NNE 06:07:54 72° ESE 06:12:09 10° S visible
